Year,Month,Day,Hour,Minute,Value (Times are PST for temperature in C)
2015,06,08,00,00,17.30
2015,06,08,00,01,17.30
2015,06,08,00,02,17.30
2015,06,08,00,03,17.20
2015,06,08,00,04,17.20
2015,06,08,00,05,17.20
2015,06,08,00,06,17.20
2015,06,08,00,07,17.10
2015,06,08,00,08,17.10
2015,06,08,00,09,17.10
2015,06,08,00,10,17.10
2015,06,08,00,11,17.10
2015,06,08,00,12,17.00
2015,06,08,00,13,17.00
2015,06,08,00,14,17.00
2015,06,08,00,15,16.90
2015,06,08,00,16,16.90
2015,06,08,00,17,16.90
2015,06,08,00,18,16.90
2015,06,08,00,19,16.90
2015,06,08,00,20,16.80
2015,06,08,00,21,16.80
2015,06,08,00,22,16.80
2015,06,08,00,23,16.80
2015,06,08,00,24,16.80
2015,06,08,00,25,16.70
2015,06,08,00,26,16.70
2015,06,08,00,27,16.70
2015,06,08,00,28,16.70
2015,06,08,00,29,16.60
2015,06,08,00,30,16.60
2015,06,08,00,31,16.60
2015,06,08,00,32,16.60
2015,06,08,00,33,16.60
2015,06,08,00,34,16.50
2015,06,08,00,35,16.50
2015,06,08,00,36,16.50
2015,06,08,00,37,16.40
2015,06,08,00,38,16.40
2015,06,08,00,39,16.40
2015,06,08,00,40,16.40
2015,06,08,00,41,16.30
2015,06,08,00,42,16.30
2015,06,08,00,43,16.30
2015,06,08,00,44,16.30
2015,06,08,00,45,16.30
2015,06,08,00,46,16.20
2015,06,08,00,47,16.20
2015,06,08,00,48,16.20
2015,06,08,00,49,16.20
2015,06,08,00,50,16.20
2015,06,08,00,51,16.10
2015,06,08,00,52,16.10
2015,06,08,00,53,16.10
2015,06,08,00,54,16.00
2015,06,08,00,55,16.00
2015,06,08,00,56,15.90
2015,06,08,00,57,15.90
2015,06,08,00,58,15.80
2015,06,08,00,59,15.80
2015,06,08,01,00,15.80
2015,06,08,01,01,15.80
2015,06,08,01,02,15.70
2015,06,08,01,03,15.70
2015,06,08,01,04,15.70
2015,06,08,01,05,15.70
2015,06,08,01,06,15.70
2015,06,08,01,07,15.70
2015,06,08,01,08,15.60
2015,06,08,01,09,15.60
2015,06,08,01,10,15.60
2015,06,08,01,11,15.60
2015,06,08,01,12,15.60
2015,06,08,01,13,15.60
2015,06,08,01,14,15.60
2015,06,08,01,15,15.60
2015,06,08,01,16,15.60
2015,06,08,01,17,15.60
2015,06,08,01,18,15.60
2015,06,08,01,19,15.60
2015,06,08,01,20,15.60
2015,06,08,01,21,15.60
2015,06,08,01,22,15.60
2015,06,08,01,23,15.60
2015,06,08,01,24,15.60
2015,06,08,01,25,15.60
2015,06,08,01,26,15.60
2015,06,08,01,27,15.50
2015,06,08,01,28,15.50
2015,06,08,01,29,15.50
2015,06,08,01,30,15.40
2015,06,08,01,31,15.40
2015,06,08,01,32,15.40
2015,06,08,01,33,15.40
2015,06,08,01,34,15.40
2015,06,08,01,35,15.40
2015,06,08,01,36,15.30
2015,06,08,01,37,15.30
2015,06,08,01,38,15.30
2015,06,08,01,39,15.30
2015,06,08,01,40,15.30
2015,06,08,01,41,15.30
2015,06,08,01,42,15.20
2015,06,08,01,43,15.20
2015,06,08,01,44,15.20
2015,06,08,01,45,15.10
2015,06,08,01,46,15.10
2015,06,08,01,47,15.10
2015,06,08,01,48,15.00
2015,06,08,01,49,15.00
2015,06,08,01,50,14.90
2015,06,08,01,51,14.90
2015,06,08,01,52,14.90
2015,06,08,01,53,14.90
2015,06,08,01,54,14.80
2015,06,08,01,55,14.80
2015,06,08,01,56,14.80
2015,06,08,01,57,14.80
2015,06,08,01,58,14.80
2015,06,08,01,59,14.80
2015,06,08,02,00,14.70
2015,06,08,02,01,14.70
2015,06,08,02,02,14.70
2015,06,08,02,03,14.70
2015,06,08,02,04,14.70
2015,06,08,02,05,14.60
2015,06,08,02,06,14.60
2015,06,08,02,07,14.60
2015,06,08,02,08,14.60
2015,06,08,02,09,14.60
2015,06,08,02,10,14.50
2015,06,08,02,11,14.50
2015,06,08,02,12,14.50
2015,06,08,02,13,14.40
2015,06,08,02,14,14.40
2015,06,08,02,15,14.40
2015,06,08,02,16,14.40
2015,06,08,02,17,14.40
2015,06,08,02,18,14.40
2015,06,08,02,19,14.40
2015,06,08,02,20,14.40
2015,06,08,02,21,14.30
2015,06,08,02,22,14.30
2015,06,08,02,23,14.30
2015,06,08,02,24,14.30
2015,06,08,02,25,14.30
2015,06,08,02,26,14.30
2015,06,08,02,27,14.20
2015,06,08,02,28,14.20
2015,06,08,02,29,14.20
2015,06,08,02,30,14.20
2015,06,08,02,31,14.20
2015,06,08,02,32,14.20
2015,06,08,02,33,14.20
2015,06,08,02,34,14.10
2015,06,08,02,35,14.10
2015,06,08,02,36,14.10
2015,06,08,02,37,14.10
2015,06,08,02,38,14.10
2015,06,08,02,39,14.10
2015,06,08,02,40,14.00
2015,06,08,02,41,14.00
2015,06,08,02,42,14.00
2015,06,08,02,43,14.00
2015,06,08,02,44,14.00
2015,06,08,02,45,14.00
2015,06,08,02,46,14.00
2015,06,08,02,47,14.00
2015,06,08,02,48,14.00
2015,06,08,02,49,14.00
2015,06,08,02,50,14.00
2015,06,08,02,51,14.00
2015,06,08,02,52,14.00
2015,06,08,02,53,14.00
2015,06,08,02,54,14.00
2015,06,08,02,55,14.00
2015,06,08,02,56,14.00
2015,06,08,02,57,14.00
2015,06,08,02,58,14.00
2015,06,08,02,59,14.00
2015,06,08,03,00,14.00
2015,06,08,03,01,14.00
2015,06,08,03,02,14.00
2015,06,08,03,03,14.00
2015,06,08,03,04,14.00
2015,06,08,03,05,13.90
2015,06,08,03,06,13.90
2015,06,08,03,07,13.90
2015,06,08,03,08,13.90
2015,06,08,03,09,13.90
2015,06,08,03,10,13.90
2015,06,08,03,11,13.90
2015,06,08,03,12,13.90
2015,06,08,03,13,13.90
2015,06,08,03,14,13.90
2015,06,08,03,15,13.90
2015,06,08,03,16,13.90
2015,06,08,03,17,13.90
2015,06,08,03,18,13.90
2015,06,08,03,19,13.80
2015,06,08,03,20,13.90
2015,06,08,03,21,13.90
2015,06,08,03,22,13.90
2015,06,08,03,23,13.80
2015,06,08,03,24,13.80
2015,06,08,03,25,13.80
2015,06,08,03,26,13.80
2015,06,08,03,27,13.80
2015,06,08,03,28,13.80
2015,06,08,03,29,13.70
2015,06,08,03,30,13.70
2015,06,08,03,31,13.70
2015,06,08,03,32,13.70
2015,06,08,03,33,13.70
2015,06,08,03,34,13.70
2015,06,08,03,35,13.70
2015,06,08,03,36,13.60
2015,06,08,03,37,13.60
2015,06,08,03,38,13.60
2015,06,08,03,39,13.60
2015,06,08,03,40,13.60
2015,06,08,03,41,13.60
2015,06,08,03,42,13.60
2015,06,08,03,43,13.60
2015,06,08,03,44,13.60
2015,06,08,03,45,13.60
2015,06,08,03,46,13.60
2015,06,08,03,47,13.60
2015,06,08,03,48,13.60
2015,06,08,03,49,13.60
2015,06,08,03,50,13.60
2015,06,08,03,51,13.60
2015,06,08,03,52,13.50
2015,06,08,03,53,13.50
2015,06,08,03,54,13.50
2015,06,08,03,55,13.40
2015,06,08,03,56,13.40
2015,06,08,03,57,13.40
2015,06,08,03,58,13.40
2015,06,08,03,59,13.40
2015,06,08,04,00,13.40
2015,06,08,04,01,13.30
2015,06,08,04,02,13.30
2015,06,08,04,03,13.30
2015,06,08,04,04,13.30
2015,06,08,04,05,13.30
2015,06,08,04,06,13.30
2015,06,08,04,07,13.30
2015,06,08,04,08,13.20
2015,06,08,04,09,13.20
2015,06,08,04,10,13.20
2015,06,08,04,11,13.20
2015,06,08,04,12,13.20
2015,06,08,04,13,13.20
2015,06,08,04,14,13.10
2015,06,08,04,15,13.10
2015,06,08,04,16,13.10
2015,06,08,04,17,13.10
2015,06,08,04,18,13.10
2015,06,08,04,19,13.10
2015,06,08,04,20,13.10
2015,06,08,04,21,13.10
2015,06,08,04,22,13.10
2015,06,08,04,23,13.10
2015,06,08,04,24,13.10
2015,06,08,04,25,13.10
2015,06,08,04,26,13.10
2015,06,08,04,27,13.10
2015,06,08,04,28,13.10
2015,06,08,04,29,13.00
2015,06,08,04,30,13.00
2015,06,08,04,31,13.00
2015,06,08,04,32,13.00
2015,06,08,04,33,12.90
2015,06,08,04,34,12.90
2015,06,08,04,35,12.90
2015,06,08,04,36,12.90
2015,06,08,04,37,12.90
2015,06,08,04,38,12.90
2015,06,08,04,39,12.90
2015,06,08,04,40,12.90
2015,06,08,04,41,12.90
2015,06,08,04,42,12.90
2015,06,08,04,43,12.90
2015,06,08,04,44,12.80
2015,06,08,04,45,12.80
2015,06,08,04,46,12.80
2015,06,08,04,47,12.80
2015,06,08,04,48,12.80
2015,06,08,04,49,12.80
2015,06,08,04,50,12.70
2015,06,08,04,51,12.70
2015,06,08,04,52,12.70
2015,06,08,04,53,12.70
2015,06,08,04,54,12.70
2015,06,08,04,55,12.70
2015,06,08,04,56,12.70
2015,06,08,04,57,12.70
2015,06,08,04,58,12.70
2015,06,08,04,59,12.60
2015,06,08,05,00,12.60
2015,06,08,05,01,12.60
2015,06,08,05,02,12.60
2015,06,08,05,03,12.60
2015,06,08,05,04,12.60
2015,06,08,05,05,12.60
2015,06,08,05,06,12.60
2015,06,08,05,07,12.50
2015,06,08,05,08,12.50
2015,06,08,05,09,12.50
2015,06,08,05,10,12.50
2015,06,08,05,11,12.50
2015,06,08,05,12,12.50
2015,06,08,05,13,12.50
2015,06,08,05,14,12.40
2015,06,08,05,15,12.40
2015,06,08,05,16,12.40
2015,06,08,05,17,12.40
2015,06,08,05,18,12.40
2015,06,08,05,19,12.40
2015,06,08,05,20,12.40
2015,06,08,05,21,12.40
2015,06,08,05,22,12.40
2015,06,08,05,23,12.40
2015,06,08,05,24,12.40
2015,06,08,05,25,12.40
2015,06,08,05,26,12.40
2015,06,08,05,27,12.40
2015,06,08,05,28,12.30
2015,06,08,05,29,12.40
2015,06,08,05,30,12.30
2015,06,08,05,31,12.30
2015,06,08,05,32,12.30
2015,06,08,05,33,12.30
2015,06,08,05,34,12.30
2015,06,08,05,35,12.30
2015,06,08,05,36,12.30
2015,06,08,05,37,12.30
2015,06,08,05,38,12.30
2015,06,08,05,39,12.30
2015,06,08,05,40,12.30
2015,06,08,05,41,12.20
2015,06,08,05,42,12.20
2015,06,08,05,43,12.20
2015,06,08,05,44,12.20
2015,06,08,05,45,12.20
2015,06,08,05,46,12.20
2015,06,08,05,47,12.20
2015,06,08,05,48,12.20
2015,06,08,05,49,12.20
2015,06,08,05,50,12.20
2015,06,08,05,51,12.20
2015,06,08,05,52,12.20
2015,06,08,05,53,12.20
2015,06,08,05,54,12.20
2015,06,08,05,55,12.20
2015,06,08,05,56,12.20
2015,06,08,05,57,12.20
2015,06,08,05,58,12.20
2015,06,08,05,59,12.20
2015,06,08,06,00,12.20
2015,06,08,06,01,12.20
2015,06,08,06,02,12.20
2015,06,08,06,03,12.20
2015,06,08,06,04,12.20
2015,06,08,06,05,12.20
2015,06,08,06,06,12.20
2015,06,08,06,07,12.20
2015,06,08,06,08,12.20
2015,06,08,06,09,12.20
2015,06,08,06,10,12.20
2015,06,08,06,11,12.20
2015,06,08,06,12,12.30
2015,06,08,06,13,12.30
2015,06,08,06,14,12.30
2015,06,08,06,15,12.30
2015,06,08,06,16,12.30
2015,06,08,06,17,12.40
2015,06,08,06,18,12.40
2015,06,08,06,19,12.40
2015,06,08,06,20,12.50
2015,06,08,06,21,12.50
2015,06,08,06,22,12.60
2015,06,08,06,23,12.60
2015,06,08,06,24,12.70
2015,06,08,06,25,12.70
2015,06,08,06,26,12.70
2015,06,08,06,27,12.80
2015,06,08,06,28,12.90
2015,06,08,06,29,13.00
2015,06,08,06,30,13.10
2015,06,08,06,31,13.10
2015,06,08,06,32,13.20
2015,06,08,06,33,13.30
2015,06,08,06,34,13.40
2015,06,08,06,35,13.40
2015,06,08,06,36,13.50
2015,06,08,06,37,13.50
2015,06,08,06,38,13.60
2015,06,08,06,39,13.60
2015,06,08,06,40,13.70
2015,06,08,06,41,13.70
2015,06,08,06,42,13.80
2015,06,08,06,43,13.80
2015,06,08,06,44,13.80
2015,06,08,06,45,13.80
2015,06,08,06,46,13.80
2015,06,08,06,47,13.90
2015,06,08,06,48,13.90
2015,06,08,06,49,13.90
2015,06,08,06,50,14.00
2015,06,08,06,51,14.00
2015,06,08,06,52,14.10
2015,06,08,06,53,14.10
2015,06,08,06,54,14.10
2015,06,08,06,55,14.20
2015,06,08,06,56,14.20
2015,06,08,06,57,14.30
2015,06,08,06,58,14.30
2015,06,08,06,59,14.30
2015,06,08,07,00,14.40
2015,06,08,07,01,14.40
2015,06,08,07,02,14.40
2015,06,08,07,03,14.50
2015,06,08,07,04,14.50
2015,06,08,07,05,14.60
2015,06,08,07,06,14.60
2015,06,08,07,07,14.70
2015,06,08,07,08,14.70
2015,06,08,07,09,14.70
2015,06,08,07,10,14.80
2015,06,08,07,11,14.90
2015,06,08,07,12,15.00
2015,06,08,07,13,15.10
2015,06,08,07,14,15.20
2015,06,08,07,15,15.30
2015,06,08,07,16,15.40
2015,06,08,07,17,15.50
2015,06,08,07,18,15.60
2015,06,08,07,19,15.70
2015,06,08,07,20,15.70
2015,06,08,07,21,15.80
2015,06,08,07,22,15.80
2015,06,08,07,23,15.80
2015,06,08,07,24,15.80
2015,06,08,07,25,15.90
2015,06,08,07,26,15.90
2015,06,08,07,27,15.90
2015,06,08,07,28,15.90
2015,06,08,07,29,16.00
2015,06,08,07,30,16.00
2015,06,08,07,31,16.10
2015,06,08,07,32,16.10
2015,06,08,07,33,16.20
2015,06,08,07,34,16.20
2015,06,08,07,35,16.30
2015,06,08,07,36,16.40
2015,06,08,07,37,16.50
2015,06,08,07,38,16.50
2015,06,08,07,39,16.60
2015,06,08,07,40,16.60
2015,06,08,07,41,16.70
2015,06,08,07,42,16.80
2015,06,08,07,43,16.90
2015,06,08,07,44,17.00
2015,06,08,07,45,17.10
2015,06,08,07,46,17.20
2015,06,08,07,47,17.30
2015,06,08,07,48,17.30
2015,06,08,07,49,17.40
2015,06,08,07,50,17.50
2015,06,08,07,51,17.50
2015,06,08,07,52,17.60
2015,06,08,07,53,17.60
2015,06,08,07,54,17.70
2015,06,08,07,55,17.80
2015,06,08,07,56,17.90
2015,06,08,07,57,17.90
2015,06,08,07,58,18.00
2015,06,08,07,59,18.10
2015,06,08,08,00,18.20
2015,06,08,08,01,18.30
2015,06,08,08,02,18.40
2015,06,08,08,03,18.60
2015,06,08,08,04,18.70
2015,06,08,08,05,18.90
2015,06,08,08,06,19.00
2015,06,08,08,07,19.10
2015,06,08,08,08,19.20
2015,06,08,08,09,19.20
2015,06,08,08,10,19.30
2015,06,08,08,11,19.30
2015,06,08,08,12,19.40
2015,06,08,08,13,19.40
2015,06,08,08,14,19.40
2015,06,08,08,15,19.50
2015,06,08,08,16,19.50
2015,06,08,08,17,19.60
2015,06,08,08,18,19.70
2015,06,08,08,19,19.80
2015,06,08,08,20,19.90
2015,06,08,08,21,19.90
2015,06,08,08,22,20.00
2015,06,08,08,23,20.00
2015,06,08,08,24,20.00
2015,06,08,08,25,20.10
2015,06,08,08,26,20.10
2015,06,08,08,27,20.10
2015,06,08,08,28,20.10
2015,06,08,08,29,20.20
2015,06,08,08,30,20.20
2015,06,08,08,31,20.30
2015,06,08,08,32,20.40
2015,06,08,08,33,20.40
2015,06,08,08,34,20.50
2015,06,08,08,35,20.60
2015,06,08,08,36,20.70
2015,06,08,08,37,20.70
2015,06,08,08,38,20.80
2015,06,08,08,39,20.80
2015,06,08,08,40,20.90
2015,06,08,08,41,20.90
2015,06,08,08,42,21.00
2015,06,08,08,43,21.00
2015,06,08,08,44,21.10
2015,06,08,08,45,21.10
2015,06,08,08,46,21.10
2015,06,08,08,47,21.20
2015,06,08,08,48,21.20
2015,06,08,08,49,21.20
2015,06,08,08,50,21.20
2015,06,08,08,51,21.30
2015,06,08,08,52,21.30
2015,06,08,08,53,21.30
2015,06,08,08,54,21.40
2015,06,08,08,55,21.40
2015,06,08,08,56,21.30
2015,06,08,08,57,21.30
2015,06,08,08,58,21.30
2015,06,08,08,59,21.30
2015,06,08,09,00,21.30
2015,06,08,09,01,21.30
2015,06,08,09,02,21.30
2015,06,08,09,03,21.40
2015,06,08,09,04,21.40
2015,06,08,09,05,21.50
2015,06,08,09,06,21.60
2015,06,08,09,07,21.70
2015,06,08,09,08,21.80
2015,06,08,09,09,21.90
2015,06,08,09,10,21.90
2015,06,08,09,11,21.90
2015,06,08,09,12,21.80
2015,06,08,09,13,21.80
2015,06,08,09,14,21.80
2015,06,08,09,15,21.80
2015,06,08,09,16,21.90
2015,06,08,09,17,21.90
2015,06,08,09,18,21.90
2015,06,08,09,19,22.00
2015,06,08,09,20,22.10
2015,06,08,09,21,22.10
2015,06,08,09,22,22.10
2015,06,08,09,23,22.10
2015,06,08,09,24,22.20
2015,06,08,09,25,22.30
2015,06,08,09,26,22.30
2015,06,08,09,27,22.30
2015,06,08,09,28,22.30
2015,06,08,09,29,22.30
2015,06,08,09,30,22.30
2015,06,08,09,31,22.30
2015,06,08,09,32,22.30
2015,06,08,09,33,22.30
2015,06,08,09,34,22.30
2015,06,08,09,35,22.20
2015,06,08,09,36,22.20
2015,06,08,09,37,22.20
2015,06,08,09,38,22.10
2015,06,08,09,39,22.00
2015,06,08,09,40,21.90
2015,06,08,09,41,21.80
2015,06,08,09,42,21.70
2015,06,08,09,43,21.50
2015,06,08,09,44,21.40
2015,06,08,09,45,21.30
2015,06,08,09,46,21.30
2015,06,08,09,47,21.30
2015,06,08,09,48,21.30
2015,06,08,09,49,21.30
2015,06,08,09,50,21.30
2015,06,08,09,51,21.30
2015,06,08,09,52,21.30
2015,06,08,09,53,21.30
2015,06,08,09,54,21.30
2015,06,08,09,55,21.20
2015,06,08,09,56,21.20
2015,06,08,09,57,21.20
2015,06,08,09,58,21.10
2015,06,08,09,59,21.10
2015,06,08,10,00,21.10
2015,06,08,10,01,21.00
2015,06,08,10,02,21.00
2015,06,08,10,03,20.90
2015,06,08,10,04,20.90
2015,06,08,10,05,20.80
2015,06,08,10,06,20.80
2015,06,08,10,07,20.80
2015,06,08,10,08,20.80
2015,06,08,10,09,20.80
2015,06,08,10,10,20.80
2015,06,08,10,11,20.70
2015,06,08,10,12,20.70
2015,06,08,10,13,20.80
2015,06,08,10,14,20.80
2015,06,08,10,15,20.80
2015,06,08,10,16,20.80
2015,06,08,10,17,20.80
2015,06,08,10,18,20.90
2015,06,08,10,19,20.90
2015,06,08,10,20,20.90
2015,06,08,10,21,20.90
2015,06,08,10,22,20.90
2015,06,08,10,23,20.90
2015,06,08,10,24,20.90
2015,06,08,10,25,20.90
2015,06,08,10,26,20.90
2015,06,08,10,27,21.00
2015,06,08,10,28,21.00
2015,06,08,10,29,21.10
2015,06,08,10,30,21.10
2015,06,08,10,31,21.10
2015,06,08,10,32,21.10
2015,06,08,10,33,21.10
2015,06,08,10,34,21.10
2015,06,08,10,35,21.10
2015,06,08,10,36,21.10
2015,06,08,10,37,21.20
2015,06,08,10,38,21.20
2015,06,08,10,39,21.30
2015,06,08,10,40,21.40
2015,06,08,10,41,21.40
2015,06,08,10,42,21.40
2015,06,08,10,43,21.30
2015,06,08,10,44,21.40
2015,06,08,10,45,21.40
2015,06,08,10,46,21.40
2015,06,08,10,47,21.40
2015,06,08,10,48,21.40
2015,06,08,10,49,21.40
2015,06,08,10,50,21.50
2015,06,08,10,51,21.60
2015,06,08,10,52,21.60
2015,06,08,10,53,21.60
2015,06,08,10,54,21.60
2015,06,08,10,55,21.60
2015,06,08,10,56,21.70
2015,06,08,10,57,21.70
2015,06,08,10,58,21.80
2015,06,08,10,59,21.70
2015,06,08,11,00,21.70
2015,06,08,11,01,21.70
2015,06,08,11,02,21.80
2015,06,08,11,03,21.80
2015,06,08,11,04,21.90
2015,06,08,11,05,22.00
2015,06,08,11,06,22.00
2015,06,08,11,07,22.00
2015,06,08,11,08,22.00
2015,06,08,11,09,22.00
2015,06,08,11,10,21.90
2015,06,08,11,11,21.80
2015,06,08,11,12,21.80
2015,06,08,11,13,21.80
2015,06,08,11,14,21.80
2015,06,08,11,15,21.80
2015,06,08,11,16,21.90
2015,06,08,11,17,21.80
2015,06,08,11,18,21.80
2015,06,08,11,19,21.70
2015,06,08,11,20,21.80
2015,06,08,11,21,21.80
2015,06,08,11,22,21.80
2015,06,08,11,23,21.90
2015,06,08,11,24,22.10
2015,06,08,11,25,22.20
2015,06,08,11,26,22.20
2015,06,08,11,27,22.20
2015,06,08,11,28,22.20
2015,06,08,11,29,22.10
2015,06,08,11,30,22.10
2015,06,08,11,31,22.10
2015,06,08,11,32,22.10
2015,06,08,11,33,22.20
2015,06,08,11,34,22.30
2015,06,08,11,35,22.30
2015,06,08,11,36,22.30
2015,06,08,11,37,22.20
2015,06,08,11,38,22.20
2015,06,08,11,39,22.30
2015,06,08,11,40,22.40
2015,06,08,11,41,22.40
2015,06,08,11,42,22.50
2015,06,08,11,43,22.50
2015,06,08,11,44,22.60
2015,06,08,11,45,22.60
2015,06,08,11,46,22.60
2015,06,08,11,47,22.60
2015,06,08,11,48,22.60
2015,06,08,11,49,22.60
2015,06,08,11,50,22.60
2015,06,08,11,51,22.60
2015,06,08,11,52,22.60
2015,06,08,11,53,22.60
2015,06,08,11,54,22.70
2015,06,08,11,55,22.70
2015,06,08,11,56,22.80
2015,06,08,11,57,22.70
2015,06,08,11,58,22.70
2015,06,08,11,59,22.60
2015,06,08,12,00,22.60
2015,06,08,12,01,22.60
2015,06,08,12,02,22.60
2015,06,08,12,03,22.60
2015,06,08,12,04,22.50
2015,06,08,12,05,22.50
2015,06,08,12,06,22.50
2015,06,08,12,07,22.50
2015,06,08,12,08,22.40
2015,06,08,12,09,22.50
2015,06,08,12,10,22.60
2015,06,08,12,11,22.60
2015,06,08,12,12,22.70
2015,06,08,12,13,22.70
2015,06,08,12,14,22.80
2015,06,08,12,15,22.80
2015,06,08,12,16,22.80
2015,06,08,12,17,22.80
2015,06,08,12,18,22.90
2015,06,08,12,19,23.00
2015,06,08,12,20,23.00
2015,06,08,12,21,22.90
2015,06,08,12,22,22.80
2015,06,08,12,23,22.80
2015,06,08,12,24,22.80
2015,06,08,12,25,22.80
2015,06,08,12,26,22.70
2015,06,08,12,27,22.70
2015,06,08,12,28,22.60
2015,06,08,12,29,22.60
2015,06,08,12,30,22.70
2015,06,08,12,31,22.70
2015,06,08,12,32,22.60
2015,06,08,12,33,22.60
2015,06,08,12,34,22.60
2015,06,08,12,35,22.60
2015,06,08,12,36,22.50
2015,06,08,12,37,22.50
2015,06,08,12,38,22.40
2015,06,08,12,39,22.40
2015,06,08,12,40,22.30
2015,06,08,12,41,22.30
2015,06,08,12,42,22.20
2015,06,08,12,43,22.30
2015,06,08,12,44,22.30
2015,06,08,12,45,22.40
2015,06,08,12,46,22.50
2015,06,08,12,47,22.50
2015,06,08,12,48,22.60
2015,06,08,12,49,22.60
2015,06,08,12,50,22.60
2015,06,08,12,51,22.60
2015,06,08,12,52,22.50
2015,06,08,12,53,22.50
2015,06,08,12,54,22.50
2015,06,08,12,55,22.60
2015,06,08,12,56,22.70
2015,06,08,12,57,22.80
2015,06,08,12,58,22.80
2015,06,08,12,59,22.80
2015,06,08,13,00,22.80
2015,06,08,13,01,22.80
2015,06,08,13,02,22.90
2015,06,08,13,03,22.90
2015,06,08,13,04,22.90
2015,06,08,13,05,23.00
2015,06,08,13,06,23.00
2015,06,08,13,07,23.20
2015,06,08,13,08,23.30
2015,06,08,13,09,23.30
2015,06,08,13,10,23.30
2015,06,08,13,11,23.30
2015,06,08,13,12,23.30
2015,06,08,13,13,23.40
2015,06,08,13,14,23.40
2015,06,08,13,15,23.40
2015,06,08,13,16,23.50
2015,06,08,13,17,23.60
2015,06,08,13,18,23.50
2015,06,08,13,19,23.50
2015,06,08,13,20,23.60
2015,06,08,13,21,23.70
2015,06,08,13,22,23.60
2015,06,08,13,23,23.60
2015,06,08,13,24,23.50
2015,06,08,13,25,23.50
2015,06,08,13,26,23.60
2015,06,08,13,27,23.60
2015,06,08,13,28,23.60
2015,06,08,13,29,23.60
2015,06,08,13,30,23.60
2015,06,08,13,31,23.60
2015,06,08,13,32,23.60
2015,06,08,13,33,23.50
2015,06,08,13,34,23.60
2015,06,08,13,35,23.60
2015,06,08,13,36,23.60
2015,06,08,13,37,23.50
2015,06,08,13,38,23.40
2015,06,08,13,39,23.30
2015,06,08,13,40,23.30
2015,06,08,13,41,23.30
2015,06,08,13,42,23.30
2015,06,08,13,43,23.30
2015,06,08,13,44,23.30
2015,06,08,13,45,23.30
2015,06,08,13,46,23.30
2015,06,08,13,47,23.20
2015,06,08,13,48,23.20
2015,06,08,13,49,23.20
2015,06,08,13,50,23.10
2015,06,08,13,51,23.10
2015,06,08,13,52,23.10
2015,06,08,13,53,23.20
2015,06,08,13,54,23.20
2015,06,08,13,55,23.30
2015,06,08,13,56,23.30
2015,06,08,13,57,23.40
2015,06,08,13,58,23.40
2015,06,08,13,59,23.30
2015,06,08,14,00,23.30
2015,06,08,14,01,23.30
2015,06,08,14,02,23.40
2015,06,08,14,03,23.50
2015,06,08,14,04,23.50
2015,06,08,14,05,23.30
2015,06,08,14,06,23.00
2015,06,08,14,07,22.90
2015,06,08,14,08,22.80
2015,06,08,14,09,22.70
2015,06,08,14,10,22.70
2015,06,08,14,11,22.70
2015,06,08,14,12,22.60
2015,06,08,14,13,22.50
2015,06,08,14,14,22.50
2015,06,08,14,15,22.50
2015,06,08,14,16,22.50
2015,06,08,14,17,22.60
2015,06,08,14,18,22.60
2015,06,08,14,19,22.60
2015,06,08,14,20,22.50
2015,06,08,14,21,22.50
2015,06,08,14,22,22.50
2015,06,08,14,23,22.50
2015,06,08,14,24,22.60
2015,06,08,14,25,22.70
2015,06,08,14,26,22.70
2015,06,08,14,27,22.70
2015,06,08,14,28,22.70
2015,06,08,14,29,22.70
2015,06,08,14,30,22.70
2015,06,08,14,31,22.80
2015,06,08,14,32,22.80
2015,06,08,14,33,22.90
2015,06,08,14,34,22.90
2015,06,08,14,35,22.90
2015,06,08,14,36,22.90
2015,06,08,14,37,22.80
2015,06,08,14,38,22.80
2015,06,08,14,39,22.80
2015,06,08,14,40,22.80
2015,06,08,14,41,22.70
2015,06,08,14,42,22.70
2015,06,08,14,43,22.70
2015,06,08,14,44,22.80
2015,06,08,14,45,22.80
2015,06,08,14,46,22.80
2015,06,08,14,47,22.90
2015,06,08,14,48,23.00
2015,06,08,14,49,23.00
2015,06,08,14,50,23.00
2015,06,08,14,51,23.00
2015,06,08,14,52,23.00
2015,06,08,14,53,23.00
2015,06,08,14,54,23.00
2015,06,08,14,55,23.10
2015,06,08,14,56,23.10
2015,06,08,14,57,23.10
2015,06,08,14,58,23.20
2015,06,08,14,59,23.20
2015,06,08,15,00,23.20
2015,06,08,15,01,23.10
2015,06,08,15,02,23.10
2015,06,08,15,03,23.10
2015,06,08,15,04,23.20
2015,06,08,15,05,23.20
2015,06,08,15,06,23.30
2015,06,08,15,07,23.40
2015,06,08,15,08,23.40
2015,06,08,15,09,23.50
2015,06,08,15,10,23.50
2015,06,08,15,11,23.60
2015,06,08,15,12,23.70
2015,06,08,15,13,23.80
2015,06,08,15,14,23.90
2015,06,08,15,15,24.10
2015,06,08,15,16,24.20
2015,06,08,15,17,24.20
2015,06,08,15,18,24.10
2015,06,08,15,19,23.90
2015,06,08,15,20,23.80
2015,06,08,15,21,23.80
2015,06,08,15,22,23.70
2015,06,08,15,23,23.70
2015,06,08,15,24,23.70
2015,06,08,15,25,23.60
2015,06,08,15,26,23.40
2015,06,08,15,27,23.30
2015,06,08,15,28,23.20
2015,06,08,15,29,23.00
2015,06,08,15,30,22.90
2015,06,08,15,31,22.90
2015,06,08,15,32,22.90
2015,06,08,15,33,22.90
2015,06,08,15,34,22.90
2015,06,08,15,35,23.00
2015,06,08,15,36,22.90
2015,06,08,15,37,22.90
2015,06,08,15,38,22.80
2015,06,08,15,39,22.70
2015,06,08,15,40,22.50
2015,06,08,15,41,22.40
2015,06,08,15,42,22.40
2015,06,08,15,43,22.30
2015,06,08,15,44,22.30
2015,06,08,15,45,22.30
2015,06,08,15,46,22.20
2015,06,08,15,47,22.10
2015,06,08,15,48,22.10
2015,06,08,15,49,22.00
2015,06,08,15,50,21.90
2015,06,08,15,51,21.80
2015,06,08,15,52,21.70
2015,06,08,15,53,21.60
2015,06,08,15,54,21.50
2015,06,08,15,55,21.50
2015,06,08,15,56,21.50
2015,06,08,15,57,21.50
2015,06,08,15,58,21.50
2015,06,08,15,59,21.60
2015,06,08,16,00,21.60
2015,06,08,16,01,21.60
2015,06,08,16,02,21.70
2015,06,08,16,03,21.70
2015,06,08,16,04,21.80
2015,06,08,16,05,21.80
2015,06,08,16,06,21.80
2015,06,08,16,07,21.80
2015,06,08,16,08,21.80
2015,06,08,16,09,21.90
2015,06,08,16,10,21.90
2015,06,08,16,11,22.00
2015,06,08,16,12,22.10
2015,06,08,16,13,22.20
2015,06,08,16,14,22.30
2015,06,08,16,15,22.30
2015,06,08,16,16,22.30
2015,06,08,16,17,22.40
2015,06,08,16,18,22.40
2015,06,08,16,19,22.40
2015,06,08,16,20,22.40
2015,06,08,16,21,22.30
2015,06,08,16,22,22.30
2015,06,08,16,23,22.30
2015,06,08,16,24,22.30
2015,06,08,16,25,22.30
2015,06,08,16,26,22.40
2015,06,08,16,27,22.40
2015,06,08,16,28,22.40
2015,06,08,16,29,22.40
2015,06,08,16,30,22.40
2015,06,08,16,31,22.50
2015,06,08,16,32,22.50
2015,06,08,16,33,22.60
2015,06,08,16,34,22.60
2015,06,08,16,35,22.60
2015,06,08,16,36,22.70
2015,06,08,16,37,22.70
2015,06,08,16,38,22.80
2015,06,08,16,39,22.80
2015,06,08,16,40,22.90
2015,06,08,16,41,23.00
2015,06,08,16,42,23.00
2015,06,08,16,43,23.00
2015,06,08,16,44,23.00
2015,06,08,16,45,23.10
2015,06,08,16,46,23.10
2015,06,08,16,47,23.10
2015,06,08,16,48,23.10
2015,06,08,16,49,23.20
2015,06,08,16,50,23.30
2015,06,08,16,51,23.30
2015,06,08,16,52,23.40
2015,06,08,16,53,23.50
2015,06,08,16,54,23.60
2015,06,08,16,55,23.60
2015,06,08,16,56,23.60
2015,06,08,16,57,23.70
2015,06,08,16,58,23.80
2015,06,08,16,59,23.90
2015,06,08,17,00,23.90
2015,06,08,17,01,24.00
2015,06,08,17,02,24.10
2015,06,08,17,03,24.10
2015,06,08,17,04,24.10
2015,06,08,17,05,24.00
2015,06,08,17,06,24.00
2015,06,08,17,07,24.10
2015,06,08,17,08,24.10
2015,06,08,17,09,24.20
2015,06,08,17,10,24.20
2015,06,08,17,11,24.20
2015,06,08,17,12,24.20
2015,06,08,17,13,24.20
2015,06,08,17,14,24.30
2015,06,08,17,15,24.40
2015,06,08,17,16,24.40
2015,06,08,17,17,24.30
2015,06,08,17,18,24.30
2015,06,08,17,19,24.30